Simultaneous Nadir Overpasses (SNOs) Predictions

Prediction of SNOs near equator between NOAA-19 and NPP Satellite Orbit:

Table of predicted SNOs near equator for the next 14.0 days since TLE Epoch: 10/26/2012
Index Date (NOAA-19) Time (NOAA-19) NOAA-19 Lat,Lon Date (NPP) Time (NPP) NPP Lat,Lon Distance(km) Time Diff (sec)
1 11/04/2012 00:29:42 29.95,-169.07 11/04/2012 00:23:16 29.72,-170.07 99.37 386
2 11/04/2012 01:20:45 -29.96, -1.84 11/04/2012 01:13:58 -29.75, -2.75 91.08 407
3 11/04/2012 02:11:47 29.95, 165.41 11/04/2012 02:04:47 29.78, 164.54 85.66 420
4 11/04/2012 03:02:50 -29.96, -27.36 11/04/2012 02:55:29 -29.81, -28.14 77.34 441
5 11/04/2012 03:53:52 29.95, 139.89 11/04/2012 03:46:17 29.79, 139.17 71.99 455
6 11/04/2012 04:44:55 -29.96, -52.88 11/04/2012 04:36:59 -29.81, -53.51 63.70 476
7 11/04/2012 05:35:57 29.95, 114.37 11/04/2012 05:27:48 29.85, 113.77 58.32 489
8 11/04/2012 06:27:00 -29.96, -78.40 11/04/2012 06:18:30 -29.87, -78.91 50.00 510
9 11/04/2012 07:18:02 29.96, 88.85 11/04/2012 07:09:18 29.85, 88.40 44.63 524
10 11/04/2012 08:09:05 -29.97,-103.92 11/04/2012 08:00:00 -29.88,-104.28 36.34 545
11 11/04/2012 09:00:07 29.96, 63.32 11/04/2012 08:50:49 29.92, 63.01 31.04 558
12 11/04/2012 09:51:10 -29.97,-129.44 11/04/2012 09:41:31 -29.94,-129.67 22.74 579
13 11/04/2012 10:42:12 29.96, 37.80 11/04/2012 10:32:19 29.92, 37.63 17.29 593
14 11/04/2012 11:26:04 -4.93,-148.79 11/04/2012 11:16:04 -5.52,-149.11 73.68 600




NCC Satellite Simultaneous Nadir Overpasses (SNOs) Prediction Service
